Weather History for Sussex, NJ

Change the Weather History Date:

Wednesday, November 28, 2012

  Actual Average Record
Temperature  
Mean Temperature 29 °F -  
Max Temperature 37 °F 48 °F 63 °F (2011)
Min Temperature 21 °F 27 °F 8 °F (1949)
Degree Days  
Heating Degree Days 36    
Moisture  
Dew Point 25 °F    
Average Humidity 81    
Maximum Humidity 96    
Minimum Humidity 53    
Precipitation  
Precipitation 0.00 in - - ()
Sea Level Pressure  
Sea Level Pressure 30.22 in    
Wind  
Wind Speed 1 mph (WNW)    
Max Wind Speed 8 mph    
Max Gust Speed -    
Visibility 7 miles    
Events      
Averages and records for this station are not official NWS values.
T = Trace of Precipitation, MM = Missing Value Source: NWS Daily Summary

Daily Weather History Graph

Daily Weather History Graph

Search for Another Location

Airport:

Trip Planner

Search our weather history database for the weather conditions in past years. The results will help you decide how hot, cold, wet, or windy it might be!

Date:

Astronomy

Nov. 28, 2012 Rise Set
Actual Time 7:01 AM EST 4:31 PM EST
Civil Twilight 6:31 AM EST 5:01 PM EST
Nautical Twilight 5:57 AM EST 5:35 PM EST
Astronomical Twilight 5:24 AM EST 6:08 PM EST
Moon 4:44 PM EST (11/28) 6:57 AM EST (11/28)
Length of Visible Light 10h 30m
Length of Day
9h 29m
Full, 100% of the Moon is Illuminated
Nov 28
Full
Dec 6
Last Quarter
Dec 13
New
Dec 20
First Quarter
Dec 28
Full

Hourly Weather History & Observations

Time (EST) Temp. Windchill Dew Point Humidity Pressure Visibility Wind Dir Wind Speed Gust Speed Precip Events Conditions
12:53 AM 33.1 °F - 30.9 °F 92% 30.21 in 6.0 mi Calm Calm - N/A   Overcast
1:25 AM 32.0 °F - 30.2 °F 93% 30.18 in 2.0 mi Calm Calm - N/A   Overcast
1:38 AM 32.0 °F - 30.2 °F 93% 30.18 in 3.0 mi Calm Calm - N/A   Overcast
1:46 AM 32.0 °F - 30.2 °F 93% 30.18 in 2.5 mi Calm Calm - N/A   Overcast
1:53 AM 32.0 °F - 30.9 °F 96% 30.20 in 2.5 mi Calm Calm - N/A   Overcast
2:00 AM 32.0 °F - 30.2 °F 93% 30.19 in 2.5 mi Calm Calm - N/A   Overcast
2:08 AM 33.8 °F - 30.2 °F 87% 30.20 in 3.0 mi Calm Calm - N/A   Overcast
2:53 AM 32.0 °F - 30.9 °F 96% 30.22 in 3.0 mi Calm Calm - N/A   Overcast
3:18 AM 32.0 °F - 30.2 °F 93% 30.20 in 2.0 mi Calm Calm - N/A   Overcast
3:25 AM 32.0 °F - 30.2 °F 93% 30.20 in 1.5 mi Calm Calm - N/A   Overcast
3:33 AM 32.0 °F - 30.2 °F 93% 30.20 in 1.2 mi Calm Calm - N/A   Overcast
3:40 AM 32.0 °F - 30.2 °F 93% 30.20 in 2.0 mi Calm Calm - N/A   Overcast
3:50 AM 33.8 °F 30.8 °F 28.4 °F 81% 30.20 in 6.0 mi NNW 3.5 mph - N/A   Overcast
3:53 AM 33.1 °F 28.7 °F 28.9 °F 85% 30.21 in 9.0 mi NW 4.6 mph - N/A   Overcast
4:53 AM 34.0 °F - 25.0 °F 70% 30.22 in 10.0 mi Calm Calm - N/A   Mostly Cloudy
5:53 AM 32.0 °F - 25.0 °F 75% 30.22 in 10.0 mi Calm Calm - N/A   Mostly Cloudy
6:53 AM 28.0 °F - 25.0 °F 88% 30.23 in 10.0 mi Calm Calm - N/A   Clear
7:53 AM 28.0 °F - 25.0 °F 88% 30.24 in 7.0 mi Calm Calm - N/A   Clear
8:53 AM 28.9 °F - 26.1 °F 89% 30.25 in 9.0 mi Calm Calm - N/A   Clear
9:53 AM 34.0 °F - 25.0 °F 70% 30.25 in 10.0 mi Calm Calm - N/A   Clear
10:53 AM 37.0 °F 32.4 °F 21.9 °F 54% 30.23 in 10.0 mi Variable 5.8 mph - N/A   Clear
11:53 AM 37.9 °F 34.4 °F 21.9 °F 53% 30.21 in 10.0 mi North 4.6 mph - N/A   Clear
12:53 PM 36.0 °F 31.1 °F 21.0 °F 55% 30.21 in 10.0 mi WSW 5.8 mph - N/A   Overcast
1:53 PM 36.0 °F 32.1 °F 21.9 °F 57% 30.20 in 10.0 mi West 4.6 mph - N/A   Overcast
2:53 PM 35.1 °F 28.6 °F 19.9 °F 54% 30.19 in 10.0 mi West 8.1 mph - N/A   Mostly Cloudy
3:53 PM 35.1 °F - 21.0 °F 57% 30.20 in 10.0 mi Calm Calm - N/A   Scattered Clouds
4:53 PM 34.0 °F - 21.0 °F 59% 30.22 in 10.0 mi Calm Calm - N/A   Clear
5:53 PM 28.0 °F - 23.0 °F 81% 30.23 in 10.0 mi Calm Calm - N/A   Clear
6:53 PM 27.0 °F - 21.9 °F 81% 30.24 in 10.0 mi Calm Calm - N/A   Clear
7:53 PM 26.1 °F - 21.0 °F 81% 30.24 in 10.0 mi Calm Calm - N/A   Clear
8:53 PM 24.1 °F - 19.9 °F 84% 30.25 in 8.0 mi Calm Calm - N/A   Clear
9:53 PM 21.9 °F - 19.0 °F 89% 30.27 in 8.0 mi Calm Calm - N/A   Clear
10:53 PM 21.9 °F - 18.0 °F 85% 30.27 in 8.0 mi Calm Calm - N/A   Clear
11:53 PM 21.0 °F - 18.0 °F 88% 30.28 in 10.0 mi Calm Calm - N/A   Clear